Index of /20260413/WXO-DD/model_gdps/15km/00/168
Name Last modified Size Description
Parent Directory -
20260413T00Z_MSC_GDPS_AbsoluteVorticity_IsbL-0200_LatLon0.15_PT168H.grib2 2026-04-13 04:53 1.5M
20260413T00Z_MSC_GDPS_AbsoluteVorticity_IsbL-0250_LatLon0.15_PT168H.grib2 2026-04-13 04:53 1.3M
20260413T00Z_MSC_GDPS_AbsoluteVorticity_IsbL-0500_LatLon0.15_PT168H.grib2 2026-04-13 04:53 1.2M
20260413T00Z_MSC_GDPS_AbsoluteVorticity_IsbL-0700_LatLon0.15_PT168H.grib2 2026-04-13 04:53 1.6M
20260413T00Z_MSC_GDPS_AbsoluteVorticity_IsbL-0850_LatLon0.15_PT168H.grib2 2026-04-13 04:53 1.6M
20260413T00Z_MSC_GDPS_AirTemp-Max_AGL-2m_LatLon0.15_PT168H.grib2 2026-04-13 04:53 754K
20260413T00Z_MSC_GDPS_AirTemp-Min_AGL-2m_LatLon0.15_PT168H.grib2 2026-04-13 04:53 797K
20260413T00Z_MSC_GDPS_AirTemp_AGL-120m_LatLon0.15_PT168H.grib2 2026-04-13 04:53 911K
20260413T00Z_MSC_GDPS_AirTemp_AGL-2m_LatLon0.15_PT168H.grib2 2026-04-13 04:53 1.0M
20260413T00Z_MSC_GDPS_AirTemp_AGL-40m_LatLon0.15_PT168H.grib2 2026-04-13 04:53 931K
20260413T00Z_MSC_GDPS_AirTemp_AGL-80m_LatLon0.15_PT168H.grib2 2026-04-13 04:53 921K
20260413T00Z_MSC_GDPS_AirTemp_IsbL-0001_LatLon0.15_PT168H.grib2 2026-04-13 04:53 706K
20260413T00Z_MSC_GDPS_AirTemp_IsbL-0005_LatLon0.15_PT168H.grib2 2026-04-13 04:53 746K
20260413T00Z_MSC_GDPS_AirTemp_IsbL-0010_LatLon0.15_PT168H.grib2 2026-04-13 04:53 755K
20260413T00Z_MSC_GDPS_AirTemp_IsbL-0020_LatLon0.15_PT168H.grib2 2026-04-13 04:53 700K
20260413T00Z_MSC_GDPS_AirTemp_IsbL-0030_LatLon0.15_PT168H.grib2 2026-04-13 04:53 752K
20260413T00Z_MSC_GDPS_AirTemp_IsbL-0050_LatLon0.15_PT168H.grib2 2026-04-13 04:53 815K
20260413T00Z_MSC_GDPS_AirTemp_IsbL-0100_LatLon0.15_PT168H.grib2 2026-04-13 04:53 953K
20260413T00Z_MSC_GDPS_AirTemp_IsbL-0150_LatLon0.15_PT168H.grib2 2026-04-13 04:53 1.0M
20260413T00Z_MSC_GDPS_AirTemp_IsbL-0175_LatLon0.15_PT168H.grib2 2026-04-13 04:53 971K
20260413T00Z_MSC_GDPS_AirTemp_IsbL-0200_LatLon0.15_PT168H.grib2 2026-04-13 04:53 1.0M
20260413T00Z_MSC_GDPS_AirTemp_IsbL-0225_LatLon0.15_PT168H.grib2 2026-04-13 04:53 1.0M
20260413T00Z_MSC_GDPS_AirTemp_IsbL-0250_LatLon0.15_PT168H.grib2 2026-04-13 04:53 1.0M
20260413T00Z_MSC_GDPS_AirTemp_IsbL-0275_LatLon0.15_PT168H.grib2 2026-04-13 04:53 1.0M
20260413T00Z_MSC_GDPS_AirTemp_IsbL-0300_LatLon0.15_PT168H.grib2 2026-04-13 04:53 1.0M
20260413T00Z_MSC_GDPS_AirTemp_IsbL-0350_LatLon0.15_PT168H.grib2 2026-04-13 04:53 933K
20260413T00Z_MSC_GDPS_AirTemp_IsbL-0400_LatLon0.15_PT168H.grib2 2026-04-13 04:53 940K
20260413T00Z_MSC_GDPS_AirTemp_IsbL-0450_LatLon0.15_PT168H.grib2 2026-04-13 04:53 961K
20260413T00Z_MSC_GDPS_AirTemp_IsbL-0500_LatLon0.15_PT168H.grib2 2026-04-13 04:53 1.0M
20260413T00Z_MSC_GDPS_AirTemp_IsbL-0550_LatLon0.15_PT168H.grib2 2026-04-13 04:53 1.0M
20260413T00Z_MSC_GDPS_AirTemp_IsbL-0600_LatLon0.15_PT168H.grib2 2026-04-13 04:53 893K
20260413T00Z_MSC_GDPS_AirTemp_IsbL-0650_LatLon0.15_PT168H.grib2 2026-04-13 04:53 918K
20260413T00Z_MSC_GDPS_AirTemp_IsbL-0700_LatLon0.15_PT168H.grib2 2026-04-13 04:53 946K
20260413T00Z_MSC_GDPS_AirTemp_IsbL-0750_LatLon0.15_PT168H.grib2 2026-04-13 04:53 1.0M
20260413T00Z_MSC_GDPS_AirTemp_IsbL-0800_LatLon0.15_PT168H.grib2 2026-04-13 04:53 1.0M
20260413T00Z_MSC_GDPS_AirTemp_IsbL-0850_LatLon0.15_PT168H.grib2 2026-04-13 04:53 1.1M
20260413T00Z_MSC_GDPS_AirTemp_IsbL-0875_LatLon0.15_PT168H.grib2 2026-04-13 04:53 1.1M
20260413T00Z_MSC_GDPS_AirTemp_IsbL-0900_LatLon0.15_PT168H.grib2 2026-04-13 04:53 1.1M
20260413T00Z_MSC_GDPS_AirTemp_IsbL-0925_LatLon0.15_PT168H.grib2 2026-04-13 04:53 1.1M
20260413T00Z_MSC_GDPS_AirTemp_IsbL-0950_LatLon0.15_PT168H.grib2 2026-04-13 04:53 1.1M
20260413T00Z_MSC_GDPS_AirTemp_IsbL-0970_LatLon0.15_PT168H.grib2 2026-04-13 04:53 1.1M
20260413T00Z_MSC_GDPS_AirTemp_IsbL-0985_LatLon0.15_PT168H.grib2 2026-04-13 04:53 1.1M
20260413T00Z_MSC_GDPS_AirTemp_IsbL-1000_LatLon0.15_PT168H.grib2 2026-04-13 04:53 1.1M
20260413T00Z_MSC_GDPS_AirTemp_IsbL-1015_LatLon0.15_PT168H.grib2 2026-04-13 04:53 1.1M
20260413T00Z_MSC_GDPS_Albedo_Sfc_LatLon0.15_PT168H.grib2 2026-04-13 04:53 247K
20260413T00Z_MSC_GDPS_CAPE_Sfc_LatLon0.15_PT168H.grib2 2026-04-13 04:53 3.8M
20260413T00Z_MSC_GDPS_CIN_Sfc_LatLon0.15_PT168H.grib2 2026-04-13 04:53 2.9M
20260413T00Z_MSC_GDPS_CloudWater_EAtm_LatLon0.15_PT168H.grib2 2026-04-13 04:53 530K
20260413T00Z_MSC_GDPS_ConvectivePrecip-Accum_Sfc_LatLon0.15_PT168H.grib2 2026-04-13 04:53 3.7M
20260413T00Z_MSC_GDPS_DewPointDepression_AGL-2m_LatLon0.15_PT168H.grib2 2026-04-13 04:53 746K
20260413T00Z_MSC_GDPS_DewPointDepression_IsbL-0010_LatLon0.15_PT168H.grib2 2026-04-13 04:53 6.5K
20260413T00Z_MSC_GDPS_DewPointDepression_IsbL-0020_LatLon0.15_PT168H.grib2 2026-04-13 04:53 59K
20260413T00Z_MSC_GDPS_DewPointDepression_IsbL-0030_LatLon0.15_PT168H.grib2 2026-04-13 04:53 70K
20260413T00Z_MSC_GDPS_DewPointDepression_IsbL-0050_LatLon0.15_PT168H.grib2 2026-04-13 04:53 357K
20260413T00Z_MSC_GDPS_DewPointDepression_IsbL-0100_LatLon0.15_PT168H.grib2 2026-04-13 04:53 379K
20260413T00Z_MSC_GDPS_DewPointDepression_IsbL-0150_LatLon0.15_PT168H.grib2 2026-04-13 04:53 454K
20260413T00Z_MSC_GDPS_DewPointDepression_IsbL-0175_LatLon0.15_PT168H.grib2 2026-04-13 04:53 546K
20260413T00Z_MSC_GDPS_DewPointDepression_IsbL-0200_LatLon0.15_PT168H.grib2 2026-04-13 04:53 636K
20260413T00Z_MSC_GDPS_DewPointDepression_IsbL-0225_LatLon0.15_PT168H.grib2 2026-04-13 04:53 767K
20260413T00Z_MSC_GDPS_DewPointDepression_IsbL-0250_LatLon0.15_PT168H.grib2 2026-04-13 04:53 882K
20260413T00Z_MSC_GDPS_DewPointDepression_IsbL-0275_LatLon0.15_PT168H.grib2 2026-04-13 04:53 893K
20260413T00Z_MSC_GDPS_DewPointDepression_IsbL-0300_LatLon0.15_PT168H.grib2 2026-04-13 04:53 930K
20260413T00Z_MSC_GDPS_DewPointDepression_IsbL-0350_LatLon0.15_PT168H.grib2 2026-04-13 04:53 957K
20260413T00Z_MSC_GDPS_DewPointDepression_IsbL-0400_LatLon0.15_PT168H.grib2 2026-04-13 04:53 1.0M
20260413T00Z_MSC_GDPS_DewPointDepression_IsbL-0450_LatLon0.15_PT168H.grib2 2026-04-13 04:53 1.0M
20260413T00Z_MSC_GDPS_DewPointDepression_IsbL-0500_LatLon0.15_PT168H.grib2 2026-04-13 04:53 1.0M
20260413T00Z_MSC_GDPS_DewPointDepression_IsbL-0550_LatLon0.15_PT168H.grib2 2026-04-13 04:53 1.0M
20260413T00Z_MSC_GDPS_DewPointDepression_IsbL-0600_LatLon0.15_PT168H.grib2 2026-04-13 04:53 1.1M
20260413T00Z_MSC_GDPS_DewPointDepression_IsbL-0650_LatLon0.15_PT168H.grib2 2026-04-13 04:53 1.1M
20260413T00Z_MSC_GDPS_DewPointDepression_IsbL-0700_LatLon0.15_PT168H.grib2 2026-04-13 04:53 1.1M
20260413T00Z_MSC_GDPS_DewPointDepression_IsbL-0750_LatLon0.15_PT168H.grib2 2026-04-13 04:53 1.1M
20260413T00Z_MSC_GDPS_DewPointDepression_IsbL-0800_LatLon0.15_PT168H.grib2 2026-04-13 04:53 1.2M
20260413T00Z_MSC_GDPS_DewPointDepression_IsbL-0850_LatLon0.15_PT168H.grib2 2026-04-13 04:53 1.2M
20260413T00Z_MSC_GDPS_DewPointDepression_IsbL-0875_LatLon0.15_PT168H.grib2 2026-04-13 04:53 1.1M
20260413T00Z_MSC_GDPS_DewPointDepression_IsbL-0900_LatLon0.15_PT168H.grib2 2026-04-13 04:53 1.1M
20260413T00Z_MSC_GDPS_DewPointDepression_IsbL-0925_LatLon0.15_PT168H.grib2 2026-04-13 04:53 1.0M
20260413T00Z_MSC_GDPS_DewPointDepression_IsbL-0950_LatLon0.15_PT168H.grib2 2026-04-13 04:53 1.0M
20260413T00Z_MSC_GDPS_DewPointDepression_IsbL-0970_LatLon0.15_PT168H.grib2 2026-04-13 04:53 1.0M
20260413T00Z_MSC_GDPS_DewPointDepression_IsbL-0985_LatLon0.15_PT168H.grib2 2026-04-13 04:53 1.0M
20260413T00Z_MSC_GDPS_DewPointDepression_IsbL-1000_LatLon0.15_PT168H.grib2 2026-04-13 04:53 964K
20260413T00Z_MSC_GDPS_DewPointDepression_IsbL-1015_LatLon0.15_PT168H.grib2 2026-04-13 04:53 903K
20260413T00Z_MSC_GDPS_DewPoint_AGL-2m_LatLon0.15_PT168H.grib2 2026-04-13 04:53 606K
20260413T00Z_MSC_GDPS_DownwardLongwaveRadiationFlux-Accum_Sfc_LatLon0.15_PT168H.grib2 2026-04-13 04:53 637K
20260413T00Z_MSC_GDPS_DownwardShortwaveRadiationFlux-Accum_NTAtm_LatLon0.15_PT168H.grib2 2026-04-13 04:53 195K
20260413T00Z_MSC_GDPS_DownwardShortwaveRadiationFlux-Accum_Sfc_LatLon0.15_PT168H.grib2 2026-04-13 04:53 842K
20260413T00Z_MSC_GDPS_FreezingRain-Accum12h_Sfc_LatLon0.15_PT168H.grib2 2026-04-13 04:53 94K
20260413T00Z_MSC_GDPS_FreezingRain-Accum24h_Sfc_LatLon0.15_PT168H.grib2 2026-04-13 04:53 134K
20260413T00Z_MSC_GDPS_FreezingRain-Accum3h_Sfc_LatLon0.15_PT168H.grib2 2026-04-13 04:53 46K
20260413T00Z_MSC_GDPS_FreezingRain-Accum6h_Sfc_LatLon0.15_PT168H.grib2 2026-04-13 04:53 68K
20260413T00Z_MSC_GDPS_FreezingRain-Accum_Sfc_LatLon0.15_PT168H.grib2 2026-04-13 04:53 289K
20260413T00Z_MSC_GDPS_GeopotentialHeight_IsbL-0001_LatLon0.15_PT168H.grib2 2026-04-13 04:53 518K
20260413T00Z_MSC_GDPS_GeopotentialHeight_IsbL-0005_LatLon0.15_PT168H.grib2 2026-04-13 04:53 495K
20260413T00Z_MSC_GDPS_GeopotentialHeight_IsbL-0010_LatLon0.15_PT168H.grib2 2026-04-13 04:53 429K
20260413T00Z_MSC_GDPS_GeopotentialHeight_IsbL-0020_LatLon0.15_PT168H.grib2 2026-04-13 04:53 574K
20260413T00Z_MSC_GDPS_GeopotentialHeight_IsbL-0030_LatLon0.15_PT168H.grib2 2026-04-13 04:53 583K
20260413T00Z_MSC_GDPS_GeopotentialHeight_IsbL-0050_LatLon0.15_PT168H.grib2 2026-04-13 04:53 583K
20260413T00Z_MSC_GDPS_GeopotentialHeight_IsbL-0100_LatLon0.15_PT168H.grib2 2026-04-13 04:53 620K
20260413T00Z_MSC_GDPS_GeopotentialHeight_IsbL-0150_LatLon0.15_PT168H.grib2 2026-04-13 04:53 635K
20260413T00Z_MSC_GDPS_GeopotentialHeight_IsbL-0175_LatLon0.15_PT168H.grib2 2026-04-13 04:53 639K
20260413T00Z_MSC_GDPS_GeopotentialHeight_IsbL-0200_LatLon0.15_PT168H.grib2 2026-04-13 04:53 643K
20260413T00Z_MSC_GDPS_GeopotentialHeight_IsbL-0225_LatLon0.15_PT168H.grib2 2026-04-13 04:53 646K
20260413T00Z_MSC_GDPS_GeopotentialHeight_IsbL-0250_LatLon0.15_PT168H.grib2 2026-04-13 04:53 642K
20260413T00Z_MSC_GDPS_GeopotentialHeight_IsbL-0275_LatLon0.15_PT168H.grib2 2026-04-13 04:53 642K
20260413T00Z_MSC_GDPS_GeopotentialHeight_IsbL-0300_LatLon0.15_PT168H.grib2 2026-04-13 04:53 641K
20260413T00Z_MSC_GDPS_GeopotentialHeight_IsbL-0350_LatLon0.15_PT168H.grib2 2026-04-13 04:53 632K
20260413T00Z_MSC_GDPS_GeopotentialHeight_IsbL-0400_LatLon0.15_PT168H.grib2 2026-04-13 04:53 622K
20260413T00Z_MSC_GDPS_GeopotentialHeight_IsbL-0450_LatLon0.15_PT168H.grib2 2026-04-13 04:53 542K
20260413T00Z_MSC_GDPS_GeopotentialHeight_IsbL-0500_LatLon0.15_PT168H.grib2 2026-04-13 04:53 531K
20260413T00Z_MSC_GDPS_GeopotentialHeight_IsbL-0550_LatLon0.15_PT168H.grib2 2026-04-13 04:53 523K
20260413T00Z_MSC_GDPS_GeopotentialHeight_IsbL-0600_LatLon0.15_PT168H.grib2 2026-04-13 04:53 684K
20260413T00Z_MSC_GDPS_GeopotentialHeight_IsbL-0650_LatLon0.15_PT168H.grib2 2026-04-13 04:53 684K
20260413T00Z_MSC_GDPS_GeopotentialHeight_IsbL-0700_LatLon0.15_PT168H.grib2 2026-04-13 04:53 679K
20260413T00Z_MSC_GDPS_GeopotentialHeight_IsbL-0750_LatLon0.15_PT168H.grib2 2026-04-13 04:53 683K
20260413T00Z_MSC_GDPS_GeopotentialHeight_IsbL-0800_LatLon0.15_PT168H.grib2 2026-04-13 04:53 696K
20260413T00Z_MSC_GDPS_GeopotentialHeight_IsbL-0850_LatLon0.15_PT168H.grib2 2026-04-13 04:53 709K
20260413T00Z_MSC_GDPS_GeopotentialHeight_IsbL-0875_LatLon0.15_PT168H.grib2 2026-04-13 04:53 711K
20260413T00Z_MSC_GDPS_GeopotentialHeight_IsbL-0900_LatLon0.15_PT168H.grib2 2026-04-13 04:53 723K
20260413T00Z_MSC_GDPS_GeopotentialHeight_IsbL-0925_LatLon0.15_PT168H.grib2 2026-04-13 04:53 729K
20260413T00Z_MSC_GDPS_GeopotentialHeight_IsbL-0950_LatLon0.15_PT168H.grib2 2026-04-13 04:53 740K
20260413T00Z_MSC_GDPS_GeopotentialHeight_IsbL-0970_LatLon0.15_PT168H.grib2 2026-04-13 04:53 750K
20260413T00Z_MSC_GDPS_GeopotentialHeight_IsbL-0985_LatLon0.15_PT168H.grib2 2026-04-13 04:53 766K
20260413T00Z_MSC_GDPS_GeopotentialHeight_IsbL-1000_LatLon0.15_PT168H.grib2 2026-04-13 04:53 787K
20260413T00Z_MSC_GDPS_GeopotentialHeight_IsbL-1015_LatLon0.15_PT168H.grib2 2026-04-13 04:53 809K
20260413T00Z_MSC_GDPS_Humidex_Sfc_LatLon0.15_PT168H.grib2 2026-04-13 04:53 5.3M
20260413T00Z_MSC_GDPS_IcePellets-Accum12h_Sfc_LatLon0.15_PT168H.grib2 2026-04-13 04:53 57K
20260413T00Z_MSC_GDPS_IcePellets-Accum24h_Sfc_LatLon0.15_PT168H.grib2 2026-04-13 04:53 86K
20260413T00Z_MSC_GDPS_IcePellets-Accum3h_Sfc_LatLon0.15_PT168H.grib2 2026-04-13 04:53 28K
20260413T00Z_MSC_GDPS_IcePellets-Accum6h_Sfc_LatLon0.15_PT168H.grib2 2026-04-13 04:53 38K
20260413T00Z_MSC_GDPS_IcePellets-Accum_Sfc_LatLon0.15_PT168H.grib2 2026-04-13 04:53 186K
20260413T00Z_MSC_GDPS_KIndex_Sfc_LatLon0.15_PT168H.grib2 2026-04-13 04:53 6.5M
20260413T00Z_MSC_GDPS_LatentHeatNetFlux_Sfc_LatLon0.15_PT168H.grib2 2026-04-13 04:53 647K
20260413T00Z_MSC_GDPS_LiftedIndex-MU-VT_IsbL-0500_LatLon0.15_PT168H.grib2 2026-04-13 04:53 5.3M
20260413T00Z_MSC_GDPS_NetLongwaveRadiationFlux-Accum_Sfc_LatLon0.15_PT168H.grib2 2026-04-13 04:53 1.1M
20260413T00Z_MSC_GDPS_NetShortwaveRadiationFlux-Accum_Sfc_LatLon0.15_PT168H.grib2 2026-04-13 04:53 1.1M
20260413T00Z_MSC_GDPS_O3MixingRatio_LatLon0.15_PT168H.grib2 2026-04-13 05:07 2.2M
20260413T00Z_MSC_GDPS_O3_EAtm_LatLon0.15_PT168H.grib2 2026-04-13 05:07 2.4M
20260413T00Z_MSC_GDPS_PlanetaryBoundaryLayerHeight_Sfc_LatLon0.15_PT168H.grib2 2026-04-13 04:53 2.4M
20260413T00Z_MSC_GDPS_Precip-Accum12h_Sfc_LatLon0.15_PT168H.grib2 2026-04-13 04:53 4.3M
20260413T00Z_MSC_GDPS_Precip-Accum24h_Sfc_LatLon0.15_PT168H.grib2 2026-04-13 04:53 4.5M
20260413T00Z_MSC_GDPS_Precip-Accum3h_Sfc_LatLon0.15_PT168H.grib2 2026-04-13 04:53 3.4M
20260413T00Z_MSC_GDPS_Precip-Accum6h_Sfc_LatLon0.15_PT168H.grib2 2026-04-13 04:53 3.9M
20260413T00Z_MSC_GDPS_Precip-Accum_Sfc_LatLon0.15_PT168H.grib2 2026-04-13 04:53 5.3M
20260413T00Z_MSC_GDPS_PrecipRate_Sfc_LatLon0.15_PT168H.grib2 2026-04-13 04:53 2.8M
20260413T00Z_MSC_GDPS_PrecipType-Instant_Sfc_LatLon0.15_PT168H.grib2 2026-04-13 04:53 1.5M
20260413T00Z_MSC_GDPS_Pressure_MSL_LatLon0.15_PT168H.grib2 2026-04-13 04:53 822K
20260413T00Z_MSC_GDPS_Pressure_PVU-1.5_LatLon0.15_PT168H.grib2 2026-04-13 04:53 5.8M
20260413T00Z_MSC_GDPS_Pressure_PVU-1_LatLon0.15_PT168H.grib2 2026-04-13 04:53 6.0M
20260413T00Z_MSC_GDPS_Pressure_PVU-2_LatLon0.15_PT168H.grib2 2026-04-13 04:53 5.6M
20260413T00Z_MSC_GDPS_Pressure_Sfc_LatLon0.15_PT168H.grib2 2026-04-13 04:53 1.1M
20260413T00Z_MSC_GDPS_RadiativeTemp_Sfc_LatLon0.15_PT168H.grib2 2026-04-13 04:53 661K
20260413T00Z_MSC_GDPS_Rain-Accum12h_Sfc_LatLon0.15_PT168H.grib2 2026-04-13 04:53 2.8M
20260413T00Z_MSC_GDPS_Rain-Accum24h_Sfc_LatLon0.15_PT168H.grib2 2026-04-13 04:53 3.1M
20260413T00Z_MSC_GDPS_Rain-Accum3h_Sfc_LatLon0.15_PT168H.grib2 2026-04-13 04:53 1.6M
20260413T00Z_MSC_GDPS_Rain-Accum6h_Sfc_LatLon0.15_PT168H.grib2 2026-04-13 04:53 2.3M
20260413T00Z_MSC_GDPS_Rain-Accum_Sfc_LatLon0.15_PT168H.grib2 2026-04-13 04:53 4.0M
20260413T00Z_MSC_GDPS_RelativeHumidity_AGL-2m_LatLon0.15_PT168H.grib2 2026-04-13 04:53 1.0M
20260413T00Z_MSC_GDPS_RelativeHumidity_IsbL-0010_LatLon0.15_PT168H.grib2 2026-04-13 04:53 221K
20260413T00Z_MSC_GDPS_RelativeHumidity_IsbL-0020_LatLon0.15_PT168H.grib2 2026-04-13 04:53 362K
20260413T00Z_MSC_GDPS_RelativeHumidity_IsbL-0030_LatLon0.15_PT168H.grib2 2026-04-13 04:53 374K
20260413T00Z_MSC_GDPS_RelativeHumidity_IsbL-0050_LatLon0.15_PT168H.grib2 2026-04-13 04:53 406K
20260413T00Z_MSC_GDPS_RelativeHumidity_IsbL-0100_LatLon0.15_PT168H.grib2 2026-04-13 04:53 477K
20260413T00Z_MSC_GDPS_RelativeHumidity_IsbL-0150_LatLon0.15_PT168H.grib2 2026-04-13 04:53 644K
20260413T00Z_MSC_GDPS_RelativeHumidity_IsbL-0175_LatLon0.15_PT168H.grib2 2026-04-13 04:53 790K
20260413T00Z_MSC_GDPS_RelativeHumidity_IsbL-0200_LatLon0.15_PT168H.grib2 2026-04-13 04:53 700K
20260413T00Z_MSC_GDPS_RelativeHumidity_IsbL-0225_LatLon0.15_PT168H.grib2 2026-04-13 04:53 792K
20260413T00Z_MSC_GDPS_RelativeHumidity_IsbL-0250_LatLon0.15_PT168H.grib2 2026-04-13 04:53 883K
20260413T00Z_MSC_GDPS_RelativeHumidity_IsbL-0275_LatLon0.15_PT168H.grib2 2026-04-13 04:53 906K
20260413T00Z_MSC_GDPS_RelativeHumidity_IsbL-0300_LatLon0.15_PT168H.grib2 2026-04-13 04:53 951K
20260413T00Z_MSC_GDPS_RelativeHumidity_IsbL-0350_LatLon0.15_PT168H.grib2 2026-04-13 04:53 968K
20260413T00Z_MSC_GDPS_RelativeHumidity_IsbL-0400_LatLon0.15_PT168H.grib2 2026-04-13 04:53 1.0M
20260413T00Z_MSC_GDPS_RelativeHumidity_IsbL-0450_LatLon0.15_PT168H.grib2 2026-04-13 04:53 1.0M
20260413T00Z_MSC_GDPS_RelativeHumidity_IsbL-0500_LatLon0.15_PT168H.grib2 2026-04-13 04:53 1.0M
20260413T00Z_MSC_GDPS_RelativeHumidity_IsbL-0550_LatLon0.15_PT168H.grib2 2026-04-13 04:53 1.0M
20260413T00Z_MSC_GDPS_RelativeHumidity_IsbL-0600_LatLon0.15_PT168H.grib2 2026-04-13 04:53 1.1M
20260413T00Z_MSC_GDPS_RelativeHumidity_IsbL-0650_LatLon0.15_PT168H.grib2 2026-04-13 04:53 1.1M
20260413T00Z_MSC_GDPS_RelativeHumidity_IsbL-0700_LatLon0.15_PT168H.grib2 2026-04-13 04:53 1.1M
20260413T00Z_MSC_GDPS_RelativeHumidity_IsbL-0750_LatLon0.15_PT168H.grib2 2026-04-13 04:53 1.1M
20260413T00Z_MSC_GDPS_RelativeHumidity_IsbL-0800_LatLon0.15_PT168H.grib2 2026-04-13 04:53 1.2M
20260413T00Z_MSC_GDPS_RelativeHumidity_IsbL-0850_LatLon0.15_PT168H.grib2 2026-04-13 04:53 1.3M
20260413T00Z_MSC_GDPS_RelativeHumidity_IsbL-0875_LatLon0.15_PT168H.grib2 2026-04-13 04:53 1.3M
20260413T00Z_MSC_GDPS_RelativeHumidity_IsbL-0900_LatLon0.15_PT168H.grib2 2026-04-13 04:53 1.2M
20260413T00Z_MSC_GDPS_RelativeHumidity_IsbL-0925_LatLon0.15_PT168H.grib2 2026-04-13 04:53 1.2M
20260413T00Z_MSC_GDPS_RelativeHumidity_IsbL-0950_LatLon0.15_PT168H.grib2 2026-04-13 04:53 1.2M
20260413T00Z_MSC_GDPS_RelativeHumidity_IsbL-0970_LatLon0.15_PT168H.grib2 2026-04-13 04:53 1.2M
20260413T00Z_MSC_GDPS_RelativeHumidity_IsbL-0985_LatLon0.15_PT168H.grib2 2026-04-13 04:53 1.1M
20260413T00Z_MSC_GDPS_RelativeHumidity_IsbL-1000_LatLon0.15_PT168H.grib2 2026-04-13 04:53 1.1M
20260413T00Z_MSC_GDPS_RelativeHumidity_IsbL-1015_LatLon0.15_PT168H.grib2 2026-04-13 04:53 1.0M
20260413T00Z_MSC_GDPS_RelativeVorticity_IsbL-0200_LatLon0.15_PT168H.grib2 2026-04-13 04:53 1.5M
20260413T00Z_MSC_GDPS_RelativeVorticity_IsbL-0250_LatLon0.15_PT168H.grib2 2026-04-13 04:53 1.3M
20260413T00Z_MSC_GDPS_RelativeVorticity_IsbL-0500_LatLon0.15_PT168H.grib2 2026-04-13 04:53 1.2M
20260413T00Z_MSC_GDPS_RelativeVorticity_IsbL-0700_LatLon0.15_PT168H.grib2 2026-04-13 04:53 1.6M
20260413T00Z_MSC_GDPS_RelativeVorticity_IsbL-0850_LatLon0.15_PT168H.grib2 2026-04-13 04:53 1.6M
20260413T00Z_MSC_GDPS_Runoff-Accum_Sfc_LatLon0.15_PT168H.grib2 2026-04-13 04:53 98K
20260413T00Z_MSC_GDPS_SensibleHeatNetFlux_Sfc_LatLon0.15_PT168H.grib2 2026-04-13 04:53 591K
20260413T00Z_MSC_GDPS_ShowalterIndex_IsbL-0500_LatLon0.15_PT168H.grib2 2026-04-13 04:53 6.2M
20260413T00Z_MSC_GDPS_Snow-Accum12h_Sfc_LatLon0.15_PT168H.grib2 2026-04-13 04:53 1.4M
20260413T00Z_MSC_GDPS_Snow-Accum24h_Sfc_LatLon0.15_PT168H.grib2 2026-04-13 04:53 1.6M
20260413T00Z_MSC_GDPS_Snow-Accum3h_Sfc_LatLon0.15_PT168H.grib2 2026-04-13 04:53 1.1M
20260413T00Z_MSC_GDPS_Snow-Accum6h_Sfc_LatLon0.15_PT168H.grib2 2026-04-13 04:53 1.3M
20260413T00Z_MSC_GDPS_Snow-Accum_Sfc_LatLon0.15_PT168H.grib2 2026-04-13 04:53 2.0M
20260413T00Z_MSC_GDPS_SnowDensity_Sfc_LatLon0.15_PT168H.grib2 2026-04-13 04:53 272K
20260413T00Z_MSC_GDPS_SnowDepth_Sfc_LatLon0.15_PT168H.grib2 2026-04-13 04:53 1.8M
20260413T00Z_MSC_GDPS_SoilTemp_DBS-0to10cm_LatLon0.15_PT168H.grib2 2026-04-13 04:53 509K
20260413T00Z_MSC_GDPS_SoilTemp_Sfc_LatLon0.15_PT168H.grib2 2026-04-13 04:53 560K
20260413T00Z_MSC_GDPS_SoilVolumetricIceContent_Sfc_LatLon0.15_PT168H.grib2 2026-04-13 04:53 223K
20260413T00Z_MSC_GDPS_SoilVolumetricWaterContent_DBS-0to10cm_LatLon0.15_PT168H.grib2 2026-04-13 04:53 552K
20260413T00Z_MSC_GDPS_SoilVolumetricWaterContent_DBS-0to1cm_LatLon0.15_PT168H.grib2 2026-04-13 04:53 653K
20260413T00Z_MSC_GDPS_SpecificHumidity_AGL-120m_LatLon0.15_PT168H.grib2 2026-04-13 04:53 1.1M
20260413T00Z_MSC_GDPS_SpecificHumidity_AGL-2m_LatLon0.15_PT168H.grib2 2026-04-13 04:53 1.2M
20260413T00Z_MSC_GDPS_SpecificHumidity_AGL-40m_LatLon0.15_PT168H.grib2 2026-04-13 04:53 1.1M
20260413T00Z_MSC_GDPS_SpecificHumidity_AGL-80m_LatLon0.15_PT168H.grib2 2026-04-13 04:53 1.1M
20260413T00Z_MSC_GDPS_SpecificHumidity_IsbL-0001_LatLon0.15_PT168H.grib2 2026-04-13 04:53 1.1M
20260413T00Z_MSC_GDPS_SpecificHumidity_IsbL-0005_LatLon0.15_PT168H.grib2 2026-04-13 04:53 1.0M
20260413T00Z_MSC_GDPS_SpecificHumidity_IsbL-0010_LatLon0.15_PT168H.grib2 2026-04-13 04:53 1.2M
20260413T00Z_MSC_GDPS_SpecificHumidity_IsbL-0020_LatLon0.15_PT168H.grib2 2026-04-13 04:53 1.5M
20260413T00Z_MSC_GDPS_SpecificHumidity_IsbL-0030_LatLon0.15_PT168H.grib2 2026-04-13 04:53 1.5M
20260413T00Z_MSC_GDPS_SpecificHumidity_IsbL-0050_LatLon0.15_PT168H.grib2 2026-04-13 04:53 1.2M
20260413T00Z_MSC_GDPS_SpecificHumidity_IsbL-0100_LatLon0.15_PT168H.grib2 2026-04-13 04:53 1.2M
20260413T00Z_MSC_GDPS_SpecificHumidity_IsbL-0150_LatLon0.15_PT168H.grib2 2026-04-13 04:53 1.2M
20260413T00Z_MSC_GDPS_SpecificHumidity_IsbL-0175_LatLon0.15_PT168H.grib2 2026-04-13 04:53 1.3M
20260413T00Z_MSC_GDPS_SpecificHumidity_IsbL-0200_LatLon0.15_PT168H.grib2 2026-04-13 04:53 1.3M
20260413T00Z_MSC_GDPS_SpecificHumidity_IsbL-0225_LatLon0.15_PT168H.grib2 2026-04-13 04:53 1.3M
20260413T00Z_MSC_GDPS_SpecificHumidity_IsbL-0250_LatLon0.15_PT168H.grib2 2026-04-13 04:53 1.5M
20260413T00Z_MSC_GDPS_SpecificHumidity_IsbL-0275_LatLon0.15_PT168H.grib2 2026-04-13 04:53 1.3M
20260413T00Z_MSC_GDPS_SpecificHumidity_IsbL-0300_LatLon0.15_PT168H.grib2 2026-04-13 04:53 1.6M
20260413T00Z_MSC_GDPS_SpecificHumidity_IsbL-0350_LatLon0.15_PT168H.grib2 2026-04-13 04:53 1.2M
20260413T00Z_MSC_GDPS_SpecificHumidity_IsbL-0400_LatLon0.15_PT168H.grib2 2026-04-13 04:53 1.5M
20260413T00Z_MSC_GDPS_SpecificHumidity_IsbL-0450_LatLon0.15_PT168H.grib2 2026-04-13 04:53 1.3M
20260413T00Z_MSC_GDPS_SpecificHumidity_IsbL-0500_LatLon0.15_PT168H.grib2 2026-04-13 04:53 1.5M
20260413T00Z_MSC_GDPS_SpecificHumidity_IsbL-0550_LatLon0.15_PT168H.grib2 2026-04-13 04:53 1.6M
20260413T00Z_MSC_GDPS_SpecificHumidity_IsbL-0600_LatLon0.15_PT168H.grib2 2026-04-13 04:53 1.7M
20260413T00Z_MSC_GDPS_SpecificHumidity_IsbL-0650_LatLon0.15_PT168H.grib2 2026-04-13 04:53 1.5M
20260413T00Z_MSC_GDPS_SpecificHumidity_IsbL-0700_LatLon0.15_PT168H.grib2 2026-04-13 04:53 1.6M
20260413T00Z_MSC_GDPS_SpecificHumidity_IsbL-0750_LatLon0.15_PT168H.grib2 2026-04-13 04:53 1.7M
20260413T00Z_MSC_GDPS_SpecificHumidity_IsbL-0800_LatLon0.15_PT168H.grib2 2026-04-13 04:53 1.8M
20260413T00Z_MSC_GDPS_SpecificHumidity_IsbL-0850_LatLon0.15_PT168H.grib2 2026-04-13 04:53 1.9M
20260413T00Z_MSC_GDPS_SpecificHumidity_IsbL-0875_LatLon0.15_PT168H.grib2 2026-04-13 04:53 1.9M
20260413T00Z_MSC_GDPS_SpecificHumidity_IsbL-0900_LatLon0.15_PT168H.grib2 2026-04-13 04:53 1.9M
20260413T00Z_MSC_GDPS_SpecificHumidity_IsbL-0925_LatLon0.15_PT168H.grib2 2026-04-13 04:53 1.9M
20260413T00Z_MSC_GDPS_SpecificHumidity_IsbL-0950_LatLon0.15_PT168H.grib2 2026-04-13 04:53 1.9M
20260413T00Z_MSC_GDPS_SpecificHumidity_IsbL-0970_LatLon0.15_PT168H.grib2 2026-04-13 04:53 1.5M
20260413T00Z_MSC_GDPS_SpecificHumidity_IsbL-0985_LatLon0.15_PT168H.grib2 2026-04-13 04:53 1.5M
20260413T00Z_MSC_GDPS_SpecificHumidity_IsbL-1000_LatLon0.15_PT168H.grib2 2026-04-13 04:53 1.5M
20260413T00Z_MSC_GDPS_SpecificHumidity_IsbL-1015_LatLon0.15_PT168H.grib2 2026-04-13 04:53 1.4M
20260413T00Z_MSC_GDPS_SpecificHumidity_Sfc_LatLon0.15_PT168H.grib2 2026-04-13 04:53 625K
20260413T00Z_MSC_GDPS_Thickness_IsbL-0850to0700_LatLon0.15_PT168H.grib2 2026-04-13 04:53 469K
20260413T00Z_MSC_GDPS_Thickness_IsbL-1000to0500_LatLon0.15_PT168H.grib2 2026-04-13 04:53 377K
20260413T00Z_MSC_GDPS_Thickness_IsbL-1000to0850_LatLon0.15_PT168H.grib2 2026-04-13 04:53 487K
20260413T00Z_MSC_GDPS_TotalCloudCover_Sfc_LatLon0.15_PT168H.grib2 2026-04-13 04:53 811K
20260413T00Z_MSC_GDPS_TotalTotalsIndex_Sfc_LatLon0.15_PT168H.grib2 2026-04-13 04:53 6.2M
20260413T00Z_MSC_GDPS_UVIndex-ClearSky_Sfc_LatLon0.15_PT168H.grib2 2026-04-13 05:07 1.0M
20260413T00Z_MSC_GDPS_UVIndex_Sfc_LatLon0.15_PT168H.grib2 2026-04-13 05:07 1.4M
20260413T00Z_MSC_GDPS_UpwardLongwaveRadiationFlux_NTAtm_LatLon0.15_PT168H.grib2 2026-04-13 04:53 835K
20260413T00Z_MSC_GDPS_VerticalVelocity_IsbL-0200_LatLon0.15_PT168H.grib2 2026-04-13 04:53 1.2M
20260413T00Z_MSC_GDPS_VerticalVelocity_IsbL-0250_LatLon0.15_PT168H.grib2 2026-04-13 04:53 1.1M
20260413T00Z_MSC_GDPS_VerticalVelocity_IsbL-0500_LatLon0.15_PT168H.grib2 2026-04-13 04:53 1.3M
20260413T00Z_MSC_GDPS_VerticalVelocity_IsbL-0600_LatLon0.15_PT168H.grib2 2026-04-13 04:53 1.3M
20260413T00Z_MSC_GDPS_VerticalVelocity_IsbL-0700_LatLon0.15_PT168H.grib2 2026-04-13 04:53 1.4M
20260413T00Z_MSC_GDPS_VerticalVelocity_IsbL-0850_LatLon0.15_PT168H.grib2 2026-04-13 04:53 1.3M
20260413T00Z_MSC_GDPS_WindChill_Sfc_LatLon0.15_PT168H.grib2 2026-04-13 04:53 5.4M
20260413T00Z_MSC_GDPS_WindDir_AGL-10m_LatLon0.15_PT168H.grib2 2026-04-13 04:53 1.3M
20260413T00Z_MSC_GDPS_WindDir_AGL-120m_LatLon0.15_PT168H.grib2 2026-04-13 04:53 1.4M
20260413T00Z_MSC_GDPS_WindDir_AGL-40m_LatLon0.15_PT168H.grib2 2026-04-13 04:53 1.4M
20260413T00Z_MSC_GDPS_WindDir_AGL-80m_LatLon0.15_PT168H.grib2 2026-04-13 04:53 1.4M
20260413T00Z_MSC_GDPS_WindDir_IsbL-0001_LatLon0.15_PT168H.grib2 2026-04-13 04:53 653K
20260413T00Z_MSC_GDPS_WindDir_IsbL-0005_LatLon0.15_PT168H.grib2 2026-04-13 04:53 810K
20260413T00Z_MSC_GDPS_WindDir_IsbL-0010_LatLon0.15_PT168H.grib2 2026-04-13 04:53 860K
20260413T00Z_MSC_GDPS_WindDir_IsbL-0020_LatLon0.15_PT168H.grib2 2026-04-13 04:53 926K
20260413T00Z_MSC_GDPS_WindDir_IsbL-0030_LatLon0.15_PT168H.grib2 2026-04-13 04:53 889K
20260413T00Z_MSC_GDPS_WindDir_IsbL-0050_LatLon0.15_PT168H.grib2 2026-04-13 04:53 939K
20260413T00Z_MSC_GDPS_WindDir_IsbL-0100_LatLon0.15_PT168H.grib2 2026-04-13 04:53 1.0M
20260413T00Z_MSC_GDPS_WindDir_IsbL-0150_LatLon0.15_PT168H.grib2 2026-04-13 04:53 1.0M
20260413T00Z_MSC_GDPS_WindDir_IsbL-0175_LatLon0.15_PT168H.grib2 2026-04-13 04:53 1.1M
20260413T00Z_MSC_GDPS_WindDir_IsbL-0200_LatLon0.15_PT168H.grib2 2026-04-13 04:53 1.1M
20260413T00Z_MSC_GDPS_WindDir_IsbL-0225_LatLon0.15_PT168H.grib2 2026-04-13 04:53 1.1M
20260413T00Z_MSC_GDPS_WindDir_IsbL-0250_LatLon0.15_PT168H.grib2 2026-04-13 04:53 1.1M
20260413T00Z_MSC_GDPS_WindDir_IsbL-0275_LatLon0.15_PT168H.grib2 2026-04-13 04:53 1.2M
20260413T00Z_MSC_GDPS_WindDir_IsbL-0300_LatLon0.15_PT168H.grib2 2026-04-13 04:53 1.2M
20260413T00Z_MSC_GDPS_WindDir_IsbL-0350_LatLon0.15_PT168H.grib2 2026-04-13 04:53 1.2M
20260413T00Z_MSC_GDPS_WindDir_IsbL-0400_LatLon0.15_PT168H.grib2 2026-04-13 04:53 1.3M
20260413T00Z_MSC_GDPS_WindDir_IsbL-0450_LatLon0.15_PT168H.grib2 2026-04-13 04:53 1.3M
20260413T00Z_MSC_GDPS_WindDir_IsbL-0500_LatLon0.15_PT168H.grib2 2026-04-13 04:53 1.3M
20260413T00Z_MSC_GDPS_WindDir_IsbL-0550_LatLon0.15_PT168H.grib2 2026-04-13 04:53 1.4M
20260413T00Z_MSC_GDPS_WindDir_IsbL-0600_LatLon0.15_PT168H.grib2 2026-04-13 04:53 1.5M
20260413T00Z_MSC_GDPS_WindDir_IsbL-0650_LatLon0.15_PT168H.grib2 2026-04-13 04:53 1.5M
20260413T00Z_MSC_GDPS_WindDir_IsbL-0700_LatLon0.15_PT168H.grib2 2026-04-13 04:53 1.6M
20260413T00Z_MSC_GDPS_WindDir_IsbL-0750_LatLon0.15_PT168H.grib2 2026-04-13 04:53 1.7M
20260413T00Z_MSC_GDPS_WindDir_IsbL-0800_LatLon0.15_PT168H.grib2 2026-04-13 04:53 1.8M
20260413T00Z_MSC_GDPS_WindDir_IsbL-0850_LatLon0.15_PT168H.grib2 2026-04-13 04:53 1.9M
20260413T00Z_MSC_GDPS_WindDir_IsbL-0875_LatLon0.15_PT168H.grib2 2026-04-13 04:53 2.0M
20260413T00Z_MSC_GDPS_WindDir_IsbL-0900_LatLon0.15_PT168H.grib2 2026-04-13 04:53 2.0M
20260413T00Z_MSC_GDPS_WindDir_IsbL-0925_LatLon0.15_PT168H.grib2 2026-04-13 04:53 2.0M
20260413T00Z_MSC_GDPS_WindDir_IsbL-0950_LatLon0.15_PT168H.grib2 2026-04-13 04:53 2.0M
20260413T00Z_MSC_GDPS_WindDir_IsbL-0970_LatLon0.15_PT168H.grib2 2026-04-13 04:53 2.0M
20260413T00Z_MSC_GDPS_WindDir_IsbL-0985_LatLon0.15_PT168H.grib2 2026-04-13 04:53 2.0M
20260413T00Z_MSC_GDPS_WindDir_IsbL-1000_LatLon0.15_PT168H.grib2 2026-04-13 04:53 2.1M
20260413T00Z_MSC_GDPS_WindDir_IsbL-1015_LatLon0.15_PT168H.grib2 2026-04-13 04:53 2.0M
20260413T00Z_MSC_GDPS_WindGust-Max_AGL-10m_LatLon0.15_PT168H.grib2 2026-04-13 04:53 2.2M
20260413T00Z_MSC_GDPS_WindGust-Min_AGL-10m_LatLon0.15_PT168H.grib2 2026-04-13 04:53 2.2M
20260413T00Z_MSC_GDPS_WindGust_AGL-10m_LatLon0.15_PT168H.grib2 2026-04-13 04:53 2.2M
20260413T00Z_MSC_GDPS_WindSpeed_AGL-10m_LatLon0.15_PT168H.grib2 2026-04-13 04:53 1.1M
20260413T00Z_MSC_GDPS_WindSpeed_AGL-120m_LatLon0.15_PT168H.grib2 2026-04-13 04:53 1.2M
20260413T00Z_MSC_GDPS_WindSpeed_AGL-40m_LatLon0.15_PT168H.grib2 2026-04-13 04:53 1.2M
20260413T00Z_MSC_GDPS_WindSpeed_AGL-80m_LatLon0.15_PT168H.grib2 2026-04-13 04:53 1.2M
20260413T00Z_MSC_GDPS_WindSpeed_IsbL-0001_LatLon0.15_PT168H.grib2 2026-04-13 04:53 630K
20260413T00Z_MSC_GDPS_WindSpeed_IsbL-0005_LatLon0.15_PT168H.grib2 2026-04-13 04:53 606K
20260413T00Z_MSC_GDPS_WindSpeed_IsbL-0010_LatLon0.15_PT168H.grib2 2026-04-13 04:53 625K
20260413T00Z_MSC_GDPS_WindSpeed_IsbL-0020_LatLon0.15_PT168H.grib2 2026-04-13 04:53 856K
20260413T00Z_MSC_GDPS_WindSpeed_IsbL-0030_LatLon0.15_PT168H.grib2 2026-04-13 04:53 856K
20260413T00Z_MSC_GDPS_WindSpeed_IsbL-0050_LatLon0.15_PT168H.grib2 2026-04-13 04:53 912K
20260413T00Z_MSC_GDPS_WindSpeed_IsbL-0100_LatLon0.15_PT168H.grib2 2026-04-13 04:53 1.1M
20260413T00Z_MSC_GDPS_WindSpeed_IsbL-0150_LatLon0.15_PT168H.grib2 2026-04-13 04:53 1.0M
20260413T00Z_MSC_GDPS_WindSpeed_IsbL-0175_LatLon0.15_PT168H.grib2 2026-04-13 04:53 1.0M
20260413T00Z_MSC_GDPS_WindSpeed_IsbL-0200_LatLon0.15_PT168H.grib2 2026-04-13 04:53 1.1M
20260413T00Z_MSC_GDPS_WindSpeed_IsbL-0225_LatLon0.15_PT168H.grib2 2026-04-13 04:53 1.1M
20260413T00Z_MSC_GDPS_WindSpeed_IsbL-0250_LatLon0.15_PT168H.grib2 2026-04-13 04:53 1.1M
20260413T00Z_MSC_GDPS_WindSpeed_IsbL-0275_LatLon0.15_PT168H.grib2 2026-04-13 04:53 1.1M
20260413T00Z_MSC_GDPS_WindSpeed_IsbL-0300_LatLon0.15_PT168H.grib2 2026-04-13 04:53 1.1M
20260413T00Z_MSC_GDPS_WindSpeed_IsbL-0350_LatLon0.15_PT168H.grib2 2026-04-13 04:53 1.1M
20260413T00Z_MSC_GDPS_WindSpeed_IsbL-0400_LatLon0.15_PT168H.grib2 2026-04-13 04:53 1.1M
20260413T00Z_MSC_GDPS_WindSpeed_IsbL-0450_LatLon0.15_PT168H.grib2 2026-04-13 04:53 1.1M
20260413T00Z_MSC_GDPS_WindSpeed_IsbL-0500_LatLon0.15_PT168H.grib2 2026-04-13 04:53 1.1M
20260413T00Z_MSC_GDPS_WindSpeed_IsbL-0550_LatLon0.15_PT168H.grib2 2026-04-13 04:53 1.1M
20260413T00Z_MSC_GDPS_WindSpeed_IsbL-0600_LatLon0.15_PT168H.grib2 2026-04-13 04:53 1.1M
20260413T00Z_MSC_GDPS_WindSpeed_IsbL-0650_LatLon0.15_PT168H.grib2 2026-04-13 04:53 1.1M
20260413T00Z_MSC_GDPS_WindSpeed_IsbL-0700_LatLon0.15_PT168H.grib2 2026-04-13 04:53 1.5M
20260413T00Z_MSC_GDPS_WindSpeed_IsbL-0750_LatLon0.15_PT168H.grib2 2026-04-13 04:53 1.5M
20260413T00Z_MSC_GDPS_WindSpeed_IsbL-0800_LatLon0.15_PT168H.grib2 2026-04-13 04:53 1.6M
20260413T00Z_MSC_GDPS_WindSpeed_IsbL-0850_LatLon0.15_PT168H.grib2 2026-04-13 04:53 1.8M
20260413T00Z_MSC_GDPS_WindSpeed_IsbL-0875_LatLon0.15_PT168H.grib2 2026-04-13 04:53 1.9M
20260413T00Z_MSC_GDPS_WindSpeed_IsbL-0900_LatLon0.15_PT168H.grib2 2026-04-13 04:53 1.9M
20260413T00Z_MSC_GDPS_WindSpeed_IsbL-0925_LatLon0.15_PT168H.grib2 2026-04-13 04:53 1.9M
20260413T00Z_MSC_GDPS_WindSpeed_IsbL-0950_LatLon0.15_PT168H.grib2 2026-04-13 04:53 1.9M
20260413T00Z_MSC_GDPS_WindSpeed_IsbL-0970_LatLon0.15_PT168H.grib2 2026-04-13 04:53 1.9M
20260413T00Z_MSC_GDPS_WindSpeed_IsbL-0985_LatLon0.15_PT168H.grib2 2026-04-13 04:53 1.9M
20260413T00Z_MSC_GDPS_WindSpeed_IsbL-1000_LatLon0.15_PT168H.grib2 2026-04-13 04:53 1.8M
20260413T00Z_MSC_GDPS_WindSpeed_IsbL-1015_LatLon0.15_PT168H.grib2 2026-04-13 04:53 1.8M
20260413T00Z_MSC_GDPS_WindU_AGL-10m_LatLon0.15_PT168H.grib2 2026-04-13 04:53 1.3M
20260413T00Z_MSC_GDPS_WindU_AGL-120m_LatLon0.15_PT168H.grib2 2026-04-13 04:53 1.0M
20260413T00Z_MSC_GDPS_WindU_AGL-40m_LatLon0.15_PT168H.grib2 2026-04-13 04:53 966K
20260413T00Z_MSC_GDPS_WindU_AGL-80m_LatLon0.15_PT168H.grib2 2026-04-13 04:53 1.0M
20260413T00Z_MSC_GDPS_WindU_IsbL-0001_LatLon0.15_PT168H.grib2 2026-04-13 04:53 635K
20260413T00Z_MSC_GDPS_WindU_IsbL-0005_LatLon0.15_PT168H.grib2 2026-04-13 04:53 684K
20260413T00Z_MSC_GDPS_WindU_IsbL-0010_LatLon0.15_PT168H.grib2 2026-04-13 04:53 699K
20260413T00Z_MSC_GDPS_WindU_IsbL-0020_LatLon0.15_PT168H.grib2 2026-04-13 04:53 734K
20260413T00Z_MSC_GDPS_WindU_IsbL-0030_LatLon0.15_PT168H.grib2 2026-04-13 04:53 734K
20260413T00Z_MSC_GDPS_WindU_IsbL-0050_LatLon0.15_PT168H.grib2 2026-04-13 04:53 702K
20260413T00Z_MSC_GDPS_WindU_IsbL-0100_LatLon0.15_PT168H.grib2 2026-04-13 04:53 921K
20260413T00Z_MSC_GDPS_WindU_IsbL-0150_LatLon0.15_PT168H.grib2 2026-04-13 04:53 1.0M
20260413T00Z_MSC_GDPS_WindU_IsbL-0175_LatLon0.15_PT168H.grib2 2026-04-13 04:53 1.0M
20260413T00Z_MSC_GDPS_WindU_IsbL-0200_LatLon0.15_PT168H.grib2 2026-04-13 04:53 850K
20260413T00Z_MSC_GDPS_WindU_IsbL-0225_LatLon0.15_PT168H.grib2 2026-04-13 04:53 860K
20260413T00Z_MSC_GDPS_WindU_IsbL-0250_LatLon0.15_PT168H.grib2 2026-04-13 04:53 857K
20260413T00Z_MSC_GDPS_WindU_IsbL-0275_LatLon0.15_PT168H.grib2 2026-04-13 04:53 883K
20260413T00Z_MSC_GDPS_WindU_IsbL-0300_LatLon0.15_PT168H.grib2 2026-04-13 04:53 871K
20260413T00Z_MSC_GDPS_WindU_IsbL-0350_LatLon0.15_PT168H.grib2 2026-04-13 04:53 888K
20260413T00Z_MSC_GDPS_WindU_IsbL-0400_LatLon0.15_PT168H.grib2 2026-04-13 04:53 887K
20260413T00Z_MSC_GDPS_WindU_IsbL-0450_LatLon0.15_PT168H.grib2 2026-04-13 04:53 888K
20260413T00Z_MSC_GDPS_WindU_IsbL-0500_LatLon0.15_PT168H.grib2 2026-04-13 04:53 1.1M
20260413T00Z_MSC_GDPS_WindU_IsbL-0550_LatLon0.15_PT168H.grib2 2026-04-13 04:53 1.1M
20260413T00Z_MSC_GDPS_WindU_IsbL-0600_LatLon0.15_PT168H.grib2 2026-04-13 04:53 1.1M
20260413T00Z_MSC_GDPS_WindU_IsbL-0650_LatLon0.15_PT168H.grib2 2026-04-13 04:53 1.2M
20260413T00Z_MSC_GDPS_WindU_IsbL-0700_LatLon0.15_PT168H.grib2 2026-04-13 04:53 1.2M
20260413T00Z_MSC_GDPS_WindU_IsbL-0750_LatLon0.15_PT168H.grib2 2026-04-13 04:53 1.3M
20260413T00Z_MSC_GDPS_WindU_IsbL-0800_LatLon0.15_PT168H.grib2 2026-04-13 04:53 1.3M
20260413T00Z_MSC_GDPS_WindU_IsbL-0850_LatLon0.15_PT168H.grib2 2026-04-13 04:53 1.4M
20260413T00Z_MSC_GDPS_WindU_IsbL-0875_LatLon0.15_PT168H.grib2 2026-04-13 04:53 1.4M
20260413T00Z_MSC_GDPS_WindU_IsbL-0900_LatLon0.15_PT168H.grib2 2026-04-13 04:53 1.4M
20260413T00Z_MSC_GDPS_WindU_IsbL-0925_LatLon0.15_PT168H.grib2 2026-04-13 04:53 1.5M
20260413T00Z_MSC_GDPS_WindU_IsbL-0950_LatLon0.15_PT168H.grib2 2026-04-13 04:53 1.4M
20260413T00Z_MSC_GDPS_WindU_IsbL-0970_LatLon0.15_PT168H.grib2 2026-04-13 04:53 1.4M
20260413T00Z_MSC_GDPS_WindU_IsbL-0985_LatLon0.15_PT168H.grib2 2026-04-13 04:53 1.4M
20260413T00Z_MSC_GDPS_WindU_IsbL-1000_LatLon0.15_PT168H.grib2 2026-04-13 04:53 1.4M
20260413T00Z_MSC_GDPS_WindU_IsbL-1015_LatLon0.15_PT168H.grib2 2026-04-13 04:53 1.3M
20260413T00Z_MSC_GDPS_WindV_AGL-10m_LatLon0.15_PT168H.grib2 2026-04-13 04:53 1.6M
20260413T00Z_MSC_GDPS_WindV_AGL-120m_LatLon0.15_PT168H.grib2 2026-04-13 04:53 1.0M
20260413T00Z_MSC_GDPS_WindV_AGL-40m_LatLon0.15_PT168H.grib2 2026-04-13 04:53 1.2M
20260413T00Z_MSC_GDPS_WindV_AGL-80m_LatLon0.15_PT168H.grib2 2026-04-13 04:53 1.0M
20260413T00Z_MSC_GDPS_WindV_IsbL-0001_LatLon0.15_PT168H.grib2 2026-04-13 04:53 757K
20260413T00Z_MSC_GDPS_WindV_IsbL-0005_LatLon0.15_PT168H.grib2 2026-04-13 04:53 773K
20260413T00Z_MSC_GDPS_WindV_IsbL-0010_LatLon0.15_PT168H.grib2 2026-04-13 04:53 626K
20260413T00Z_MSC_GDPS_WindV_IsbL-0020_LatLon0.15_PT168H.grib2 2026-04-13 04:53 852K
20260413T00Z_MSC_GDPS_WindV_IsbL-0030_LatLon0.15_PT168H.grib2 2026-04-13 04:53 852K
20260413T00Z_MSC_GDPS_WindV_IsbL-0050_LatLon0.15_PT168H.grib2 2026-04-13 04:53 905K
20260413T00Z_MSC_GDPS_WindV_IsbL-0100_LatLon0.15_PT168H.grib2 2026-04-13 04:53 851K
20260413T00Z_MSC_GDPS_WindV_IsbL-0150_LatLon0.15_PT168H.grib2 2026-04-13 04:53 1.0M
20260413T00Z_MSC_GDPS_WindV_IsbL-0175_LatLon0.15_PT168H.grib2 2026-04-13 04:53 1.0M
20260413T00Z_MSC_GDPS_WindV_IsbL-0200_LatLon0.15_PT168H.grib2 2026-04-13 04:53 1.1M
20260413T00Z_MSC_GDPS_WindV_IsbL-0225_LatLon0.15_PT168H.grib2 2026-04-13 04:53 854K
20260413T00Z_MSC_GDPS_WindV_IsbL-0250_LatLon0.15_PT168H.grib2 2026-04-13 04:53 851K
20260413T00Z_MSC_GDPS_WindV_IsbL-0275_LatLon0.15_PT168H.grib2 2026-04-13 04:53 879K
20260413T00Z_MSC_GDPS_WindV_IsbL-0300_LatLon0.15_PT168H.grib2 2026-04-13 04:53 868K
20260413T00Z_MSC_GDPS_WindV_IsbL-0350_LatLon0.15_PT168H.grib2 2026-04-13 04:53 882K
20260413T00Z_MSC_GDPS_WindV_IsbL-0400_LatLon0.15_PT168H.grib2 2026-04-13 04:53 883K
20260413T00Z_MSC_GDPS_WindV_IsbL-0450_LatLon0.15_PT168H.grib2 2026-04-13 04:53 881K
20260413T00Z_MSC_GDPS_WindV_IsbL-0500_LatLon0.15_PT168H.grib2 2026-04-13 04:53 1.1M
20260413T00Z_MSC_GDPS_WindV_IsbL-0550_LatLon0.15_PT168H.grib2 2026-04-13 04:53 1.1M
20260413T00Z_MSC_GDPS_WindV_IsbL-0600_LatLon0.15_PT168H.grib2 2026-04-13 04:53 1.1M
20260413T00Z_MSC_GDPS_WindV_IsbL-0650_LatLon0.15_PT168H.grib2 2026-04-13 04:53 1.2M
20260413T00Z_MSC_GDPS_WindV_IsbL-0700_LatLon0.15_PT168H.grib2 2026-04-13 04:53 1.2M
20260413T00Z_MSC_GDPS_WindV_IsbL-0750_LatLon0.15_PT168H.grib2 2026-04-13 04:53 1.2M
20260413T00Z_MSC_GDPS_WindV_IsbL-0800_LatLon0.15_PT168H.grib2 2026-04-13 04:53 1.3M
20260413T00Z_MSC_GDPS_WindV_IsbL-0850_LatLon0.15_PT168H.grib2 2026-04-13 04:53 1.4M
20260413T00Z_MSC_GDPS_WindV_IsbL-0875_LatLon0.15_PT168H.grib2 2026-04-13 04:53 1.4M
20260413T00Z_MSC_GDPS_WindV_IsbL-0900_LatLon0.15_PT168H.grib2 2026-04-13 04:53 1.4M
20260413T00Z_MSC_GDPS_WindV_IsbL-0925_LatLon0.15_PT168H.grib2 2026-04-13 04:53 1.4M
20260413T00Z_MSC_GDPS_WindV_IsbL-0950_LatLon0.15_PT168H.grib2 2026-04-13 04:53 1.4M
20260413T00Z_MSC_GDPS_WindV_IsbL-0970_LatLon0.15_PT168H.grib2 2026-04-13 04:53 1.4M
20260413T00Z_MSC_GDPS_WindV_IsbL-0985_LatLon0.15_PT168H.grib2 2026-04-13 04:53 1.4M
20260413T00Z_MSC_GDPS_WindV_IsbL-1000_LatLon0.15_PT168H.grib2 2026-04-13 04:53 1.7M
20260413T00Z_MSC_GDPS_WindV_IsbL-1015_LatLon0.15_PT168H.grib2 2026-04-13 04:53 1.6M